EW3204 Weather Reports


Display with metric or nautical units.
time (UTC)temp
F
wind
direction
speed
MPH
gust
MPH
rain 1hr
in
rain 24hr
in
rain mn
in
humidity
%
barometer
mb
20260505090047 56 153 2.0 0.0 0.00 0.00 0.00 54 1010.4
20260505084547 56 153 2.0 0.0 0.00 0.00 0.00 54 1010.5
20260505083040 56 142 1.0 0.0 0.00 0.00 0.00 55 1010.6
20260505081538 56 142 1.0 0.0 0.00 0.00 0.00 56 1011.1
20260505080043 57 142 1.0 0.0 0.00 0.00 0.00 56 1011.1
20260505074538 56 144 3.0 0.0 0.00 0.00 0.00 57 1011.0
20260505073041 57 78 2.0 0.0 0.00 0.00 0.00 55 1010.9
20260505071530 59 324 3.0 0.0 0.00 0.00 0.00 52 1010.9
20260505070036 59 269 3.0 0.0 0.00 0.00 0.00 51 1011.1
20260505064523 59 264 3.0 0.0 0.00 0.00 0.00 51 1011.1
20260505063023 60 278 6.0 0.0 0.00 0.00 0.00 50 1011.2
20260505061527 60 254 6.0 0.0 0.00 0.00 0.00 49 1011.4
20260505060024 60 275 8.0 0.0 0.00 0.00 0.00 49 1011.4
20260505054525 61 289 9.0 0.0 0.00 0.00 0.00 50 1011.4
20260505053021 60 305 9.0 0.0 0.00 0.00 0.00 51 1011.4
20260505051523 61 290 8.0 0.0 0.00 0.00 0.00 49 1011.5
20260505041530 62 297 10.0 0.0 0.00 0.00 0.00 48 1011.3
20260505040029 62 260 10.0 0.0 0.00 0.00 0.00 48 1011.2
20260505034523 62 288 10.0 0.0 0.00 0.00 0.00 48 1011.1
20260505033020 62 273 13.0 0.0 0.00 0.00 0.00 46 1010.9
20260505031532 63 281 12.0 0.0 0.00 0.00 0.00 45 1010.8
20260505030017 63 264 14.0 0.0 0.00 0.00 0.00 44 1010.4
20260505024516 63 274 13.0 0.0 0.00 0.00 0.00 44 1010.2
20260505023015 64 263 16.0 0.0 0.00 0.00 0.00 43 1009.8
20260505021515 65 279 18.0 0.0 0.00 0.00 0.00 41 1009.4
20260505020015 65 269 15.0 0.0 0.00 0.00 0.00 39 1009.7
20260505014513 66 267 12.0 0.0 0.00 0.00 0.00 38 1009.6
20260505013013 67 274 11.0 0.0 0.00 0.00 0.00 37 1009.5
20260505011514 67 288 14.0 0.0 0.00 0.00 0.00 36 1009.6
20260505010016 68 269 14.0 0.0 0.00 0.00 0.00 35 1009.5
20260505004513 68 267 16.0 0.0 0.00 0.00 0.00 33 1009.6
20260505003011 68 258 14.0 0.0 0.00 0.00 0.00 34 1009.6
20260505001512 68 285 13.0 0.0 0.00 0.00 0.00 33 1009.5
20260505000011 69 264 15.0 0.0 0.00 0.00 0.00 33 1009.7
20260504234510 69 290 19.0 0.0 0.00 0.00 0.00 34 1009.4
20260504233010 70 326 18.0 0.0 0.00 0.00 0.00 33 1009.2
20260504231510 70 327 19.0 0.0 0.00 0.00 0.00 32 1009.1
20260504230011 71 308 18.0 0.0 0.00 0.00 0.00 32 1009.0
20260504224508 71 308 18.0 0.0 0.00 0.00 0.00 32 1009.0
20260504223011 71 288 18.0 0.0 0.00 0.00 0.00 34 1009.3
20260504221507 71 291 19.0 0.0 0.00 0.00 0.00 33 1009.4
20260504220013 71 297 16.0 0.0 0.00 0.00 0.00 31 1009.4
20260504214507 71 285 17.0 0.0 0.00 0.00 0.00 32 1009.6
20260504213019 71 306 17.0 0.0 0.00 0.00 0.00 31 1009.7
20260504211506 71 298 15.0 0.0 0.00 0.00 0.00 31 1009.8
20260504210005 71 301 17.0 0.0 0.00 0.00 0.00 32 1009.9
20260504204512 71 275 17.0 0.0 0.00 0.00 0.00 33 1009.9
20260504203004 71 275 14.0 0.0 0.00 0.00 0.00 32 1010.0
20260504201502 71 271 15.0 0.0 0.00 0.00 0.00 33 1009.9
20260504200002 70 297 13.0 0.0 0.00 0.00 0.00 33 1010.1
20260504194602 70 289 14.0 0.0 0.00 0.00 0.00 33 1010.3
20260504193058 70 279 12.0 0.0 0.00 0.00 0.00 33 1010.2
20260504191600 69 299 13.0 0.0 0.00 0.00 0.00 33 1010.4
20260504190053 69 310 14.0 0.0 0.00 0.00 0.00 34 1010.6
20260504184551 68 290 12.0 0.0 0.00 0.00 0.00 35 1010.9
20260504183051 68 288 11.0 0.0 0.00 0.00 0.00 36 1011.1
20260504181549 67 279 11.0 0.0 0.00 0.00 0.00 37 1011.4
20260504180046 66 307 11.0 0.0 0.00 0.00 0.00 37 1011.4
20260504174544 65 275 12.0 0.0 0.00 0.00 0.00 39 1011.4
20260504173042 65 309 11.0 0.0 0.00 0.00 0.00 40 1011.3
20260504171546 65 301 11.0 0.0 0.00 0.00 0.00 37 1011.1